Time,TemperatureF,DewpointF,PressureIn,WindDirection,WindDirectionDegrees,WindSpeedMPH,WindSpeedGustMPH,Humidity,HourlyPrecipIn,Conditions,Clouds,dailyrainin,SoftwareType,DateUTC
2013-05-24 00:03:00,64.0,63.0,29.89,NNE,20,0.0,1.0,95,0.01,,,0.66,,2013-05-24 04:03:00,
2013-05-24 00:12:00,64.0,63.0,29.89,NNE,20,0.0,1.0,95,0.01,,,0.66,,2013-05-24 04:12:00,
2013-05-24 00:23:00,64.0,63.0,29.88,NNE,13,0.0,1.0,96,0.01,,,0.67,,2013-05-24 04:23:00,
2013-05-24 00:33:00,64.0,63.0,29.88,SE,138,0.0,2.0,96,0.01,,,0.67,,2013-05-24 04:33:00,
2013-05-24 00:42:00,64.0,63.0,29.88,SE,138,0.0,2.0,96,0.01,,,0.67,,2013-05-24 04:42:00,
2013-05-24 00:53:00,64.0,63.0,29.87,SSE,160,0.0,1.0,96,0.01,,,0.67,,2013-05-24 04:53:00,
2013-05-24 01:02:00,64.0,63.0,29.87,SE,139,0.0,0.0,96,0.01,,,0.67,,2013-05-24 05:02:00,
2013-05-24 01:12:00,64.0,63.0,29.87,SE,139,0.0,0.0,96,0.01,,,0.67,,2013-05-24 05:12:00,
2013-05-24 01:22:00,64.0,63.0,29.86,SSE,150,0.0,0.0,96,0.00,,,0.67,,2013-05-24 05:22:00,
2013-05-24 01:32:00,64.0,63.0,29.86,ESE,105,0.0,1.0,96,0.00,,,0.67,,2013-05-24 05:32:00,
2013-05-24 01:42:00,64.0,63.0,29.86,ESE,105,0.0,1.0,96,0.00,,,0.67,,2013-05-24 05:42:00,
2013-05-24 01:52:00,64.0,63.0,29.85,WSW,258,0.0,1.0,96,0.00,,,0.67,,2013-05-24 05:52:00,
2013-05-24 02:02:00,63.0,62.0,29.85,WNW,291,0.0,2.0,96,0.00,,,0.67,,2013-05-24 06:02:00,
2013-05-24 02:12:00,63.0,62.0,29.85,WNW,291,0.0,2.0,96,0.00,,,0.67,,2013-05-24 06:12:00,
2013-05-24 02:21:00,63.0,62.0,29.84,West,278,0.0,2.0,96,0.00,,,0.67,,2013-05-24 06:21:00,
2013-05-24 02:32:00,63.0,62.0,29.84,SSE,155,0.0,3.0,96,0.01,,,0.68,,2013-05-24 06:32:00,
2013-05-24 02:42:00,63.0,62.0,29.84,SSE,155,0.0,3.0,96,0.01,,,0.68,,2013-05-24 06:42:00,
2013-05-24 02:52:00,63.0,62.0,29.83,ENE,71,0.0,1.0,96,0.01,,,0.68,,2013-05-24 06:52:00,
2013-05-24 03:02:00,63.0,62.0,29.83,SE,133,0.0,2.0,96,0.01,,,0.68,,2013-05-24 07:02:00,
2013-05-24 03:11:00,63.0,62.0,29.83,SE,133,0.0,2.0,96,0.01,,,0.68,,2013-05-24 07:11:00,
2013-05-24 03:22:00,63.0,62.0,29.82,East,96,0.0,1.0,96,0.01,,,0.68,,2013-05-24 07:22:00,
2013-05-24 03:32:00,63.0,62.0,29.81,NNE,19,0.0,3.0,96,0.00,,,0.68,,2013-05-24 07:32:00,
2013-05-24 03:42:00,63.0,62.0,29.81,NNE,19,0.0,3.0,96,0.00,,,0.68,,2013-05-24 07:42:00,
2013-05-24 03:52:00,63.0,62.0,29.80,NW,310,0.0,1.0,96,0.00,,,0.68,,2013-05-24 07:52:00,
2013-05-24 04:02:00,63.0,62.0,29.80,NW,311,0.0,0.0,96,0.00,,,0.68,,2013-05-24 08:02:00,
2013-05-24 04:11:00,63.0,62.0,29.80,NW,311,0.0,0.0,96,0.00,,,0.68,,2013-05-24 08:11:00,
2013-05-24 04:22:00,63.0,62.0,29.80,NW,310,0.0,0.0,96,0.00,,,0.68,,2013-05-24 08:22:00,
2013-05-24 04:33:00,63.0,62.0,29.80,SE,139,0.0,1.0,96,0.00,,,0.68,,2013-05-24 08:33:00,
2013-05-24 04:42:00,63.0,62.0,29.80,SE,139,0.0,1.0,96,0.00,,,0.68,,2013-05-24 08:42:00,
2013-05-24 04:52:00,63.0,62.0,29.79,SE,141,0.0,2.0,96,0.00,,,0.68,,2013-05-24 08:52:00,
2013-05-24 05:02:00,63.0,62.0,29.79,ESE,114,0.0,0.0,96,0.00,,,0.68,,2013-05-24 09:02:00,
2013-05-24 05:11:00,63.0,62.0,29.79,ESE,114,0.0,0.0,96,0.00,,,0.68,,2013-05-24 09:11:00,
2013-05-24 05:22:00,63.0,62.0,29.78,ESE,115,0.0,1.0,96,0.00,,,0.68,,2013-05-24 09:22:00,
2013-05-24 05:33:00,63.0,62.0,29.78,ESE,114,0.0,1.0,96,0.00,,,0.68,,2013-05-24 09:33:00,
2013-05-24 05:42:00,63.0,62.0,29.78,ESE,114,0.0,1.0,96,0.00,,,0.68,,2013-05-24 09:42:00,
2013-05-24 05:52:00,63.0,62.0,29.77,ESE,115,0.0,1.0,97,0.00,,,0.68,,2013-05-24 09:52:00,
2013-05-24 06:03:00,62.0,61.0,29.77,ESE,114,0.0,0.0,97,0.00,,,0.68,,2013-05-24 10:03:00,
2013-05-24 06:12:00,62.0,61.0,29.77,ESE,114,0.0,0.0,97,0.00,,,0.68,,2013-05-24 10:12:00,
2013-05-24 06:22:00,62.0,61.0,29.76,ESE,114,0.0,1.0,97,0.00,,,0.68,,2013-05-24 10:22:00,
2013-05-24 06:33:00,62.0,61.0,29.76,ESE,114,0.0,0.0,97,0.00,,,0.68,,2013-05-24 10:33:00,
2013-05-24 06:42:00,62.0,61.0,29.76,ESE,114,0.0,0.0,97,0.00,,,0.68,,2013-05-24 10:42:00,
2013-05-24 06:52:00,63.0,62.0,29.77,ESE,115,0.0,0.0,97,0.00,,,0.68,,2013-05-24 10:52:00,
2013-05-24 07:02:00,63.0,62.0,29.78,ESE,115,0.0,0.0,97,0.00,,,0.68,,2013-05-24 11:02:00,
2013-05-24 07:12:00,63.0,62.0,29.78,ESE,115,0.0,0.0,97,0.00,,,0.68,,2013-05-24 11:12:00,
2013-05-24 07:22:00,63.0,62.0,29.79,WSW,242,0.0,0.0,97,0.00,,,0.68,,2013-05-24 11:22:00,
2013-05-24 07:32:00,63.0,62.0,29.79,WSW,240,0.0,0.0,97,0.00,,,0.68,,2013-05-24 11:32:00,
2013-05-24 07:42:00,63.0,62.0,29.79,WSW,240,0.0,0.0,97,0.00,,,0.68,,2013-05-24 11:42:00,
2013-05-24 07:52:00,63.0,62.0,29.80,WSW,240,0.0,0.0,97,0.00,,,0.68,,2013-05-24 11:52:00,
2013-05-24 08:02:00,63.0,62.0,29.80,SSW,193,0.0,4.0,97,0.00,,,0.68,,2013-05-24 12:02:00,
2013-05-24 08:11:00,63.0,62.0,29.80,SSW,193,0.0,4.0,97,0.00,,,0.68,,2013-05-24 12:11:00,
2013-05-24 08:22:00,63.0,62.0,29.80,SW,229,0.0,0.0,97,0.00,,,0.68,,2013-05-24 12:22:00,
2013-05-24 08:32:00,63.0,62.0,29.81,WSW,248,0.0,1.0,96,0.00,,,0.68,,2013-05-24 12:32:00,
2013-05-24 08:42:00,63.0,62.0,29.81,WSW,248,0.0,1.0,96,0.00,,,0.68,,2013-05-24 12:42:00,
2013-05-24 08:52:00,63.0,62.0,29.82,West,259,0.0,1.0,96,0.00,,,0.68,,2013-05-24 12:52:00,
2013-05-24 09:02:00,64.0,63.0,29.82,SE,135,0.0,1.0,95,0.00,,,0.68,,2013-05-24 13:02:00,
2013-05-24 09:11:00,64.0,63.0,29.82,SE,135,0.0,1.0,95,0.00,,,0.68,,2013-05-24 13:11:00,
2013-05-24 09:22:00,64.0,63.0,29.83,SSW,211,0.0,1.0,95,0.00,,,0.68,,2013-05-24 13:22:00,
2013-05-24 09:32:00,64.0,63.0,29.83,SSE,147,0.0,1.0,95,0.00,,,0.68,,2013-05-24 13:32:00,
2013-05-24 09:42:00,64.0,63.0,29.83,SSE,147,0.0,1.0,95,0.00,,,0.68,,2013-05-24 13:42:00,
2013-05-24 09:52:00,64.0,63.0,29.83,SSE,167,0.0,0.0,95,0.01,,,0.69,,2013-05-24 13:52:00,
2013-05-24 10:02:00,64.0,63.0,29.83,SSE,167,0.0,0.0,95,0.01,,,0.69,,2013-05-24 14:02:00,
2013-05-24 10:11:00,64.0,63.0,29.83,SSE,167,0.0,0.0,95,0.01,,,0.69,,2013-05-24 14:11:00,
2013-05-24 10:21:00,65.0,63.0,29.83,WSW,251,0.0,1.0,93,0.01,,,0.69,,2013-05-24 14:21:00,
2013-05-24 10:32:00,66.0,63.0,29.83,WSW,257,0.0,2.0,90,0.01,,,0.69,,2013-05-24 14:32:00,
2013-05-24 10:42:00,66.0,63.0,29.83,WSW,257,0.0,2.0,90,0.01,,,0.69,,2013-05-24 14:42:00,
2013-05-24 10:52:00,67.0,63.0,29.82,WSW,257,0.0,2.0,88,0.00,,,0.69,,2013-05-24 14:52:00,
2013-05-24 11:02:00,67.0,64.0,29.83,SSE,159,0.0,1.0,89,0.00,,,0.69,,2013-05-24 15:02:00,
2013-05-24 11:11:00,67.0,64.0,29.83,SSE,159,0.0,1.0,89,0.00,,,0.69,,2013-05-24 15:11:00,
2013-05-24 11:22:00,66.0,62.0,29.83,SW,228,0.0,1.0,87,0.00,,,0.69,,2013-05-24 15:22:00,
2013-05-24 11:33:00,64.0,60.0,29.85,SSE,147,2.0,6.0,86,0.00,,,0.69,,2013-05-24 15:33:00,
2013-05-24 11:43:00,64.0,60.0,29.85,SSE,147,2.0,6.0,86,0.00,,,0.69,,2013-05-24 15:43:00,
2013-05-24 11:52:00,62.0,58.0,29.87,WNW,302,0.0,4.0,88,0.00,,,0.69,,2013-05-24 15:52:00,
2013-05-24 12:03:00,61.0,58.0,29.86,WSW,248,0.0,1.0,90,0.00,,,0.69,,2013-05-24 16:03:00,
2013-05-24 12:13:00,61.0,58.0,29.86,WSW,248,0.0,1.0,90,0.00,,,0.69,,2013-05-24 16:13:00,
2013-05-24 12:22:00,60.0,57.0,29.88,East,96,0.0,1.0,89,0.00,,,0.69,,2013-05-24 16:22:00,
2013-05-24 12:32:00,58.0,55.0,29.88,East,98,0.0,2.0,90,0.00,,,0.69,,2013-05-24 16:32:00,
2013-05-24 12:42:00,58.0,55.0,29.88,East,98,0.0,2.0,90,0.00,,,0.69,,2013-05-24 16:42:00,
2013-05-24 12:52:00,58.0,54.0,29.89,WSW,248,0.0,2.0,88,0.00,,,0.69,,2013-05-24 16:52:00,
2013-05-24 13:02:00,59.0,54.0,29.89,ESE,121,0.0,2.0,85,0.00,,,0.69,,2013-05-24 17:02:00,
2013-05-24 13:12:00,59.0,54.0,29.89,ESE,121,0.0,2.0,85,0.00,,,0.69,,2013-05-24 17:12:00,
2013-05-24 13:22:00,59.0,54.0,29.89,ENE,77,0.0,3.0,85,0.00,,,0.69,,2013-05-24 17:22:00,
2013-05-24 13:32:00,58.0,54.0,29.90,SW,229,1.0,3.0,85,0.00,,,0.69,,2013-05-24 17:32:00,
2013-05-24 13:42:00,58.0,54.0,29.90,SW,229,1.0,3.0,85,0.00,,,0.69,,2013-05-24 17:42:00,
2013-05-24 13:52:00,57.0,53.0,29.90,East,101,0.0,2.0,86,0.00,,,0.69,,2013-05-24 17:52:00,
2013-05-24 14:01:00,56.0,52.0,29.91,West,259,1.0,4.0,86,0.00,,,0.69,,2013-05-24 18:01:00,
2013-05-24 14:12:00,56.0,52.0,29.91,West,259,1.0,4.0,86,0.00,,,0.69,,2013-05-24 18:12:00,
2013-05-24 14:22:00,55.0,52.0,29.91,SSE,150,0.0,3.0,88,0.00,,,0.69,,2013-05-24 18:22:00,
2013-05-24 14:32:00,55.0,52.0,29.92,SE,131,1.0,3.0,88,0.00,,,0.69,,2013-05-24 18:32:00,
2013-05-24 14:42:00,55.0,52.0,29.92,SE,131,1.0,3.0,88,0.00,,,0.69,,2013-05-24 18:42:00,
2013-05-24 14:52:00,54.0,51.0,29.92,SSE,153,1.0,6.0,89,0.00,,,0.69,,2013-05-24 18:52:00,
2013-05-24 15:01:00,54.0,51.0,29.92,NW,326,1.0,6.0,88,0.00,,,0.69,,2013-05-24 19:01:00,
2013-05-24 15:11:00,54.0,51.0,29.92,NW,326,1.0,6.0,88,0.00,,,0.69,,2013-05-24 19:11:00,
2013-05-24 15:21:00,54.0,51.0,29.92,SSE,150,1.0,2.0,88,0.00,,,0.63,,2013-05-24 19:21:00,
2013-05-24 15:32:00,54.0,51.0,29.93,SW,228,0.0,3.0,88,0.00,,,0.63,,2013-05-24 19:32:00,
2013-05-24 15:42:00,54.0,51.0,29.93,SW,228,0.0,3.0,88,0.00,,,0.63,,2013-05-24 19:42:00,
2013-05-24 15:52:00,53.0,49.0,29.93,SSE,158,0.0,3.0,86,0.00,,,0.63,,2013-05-24 19:52:00,
2013-05-24 16:02:00,53.0,49.0,29.94,SSW,212,0.0,3.0,87,0.00,,,0.63,,2013-05-24 20:02:00,
2013-05-24 16:12:00,53.0,49.0,29.94,SSW,212,0.0,3.0,87,0.00,,,0.63,,2013-05-24 20:12:00,
2013-05-24 16:22:00,53.0,49.0,29.93,SE,133,0.0,5.0,86,0.00,,,0.37,,2013-05-24 20:22:00,
2013-05-24 16:32:00,53.0,49.0,29.93,ESE,107,1.0,4.0,85,0.00,,,0.37,,2013-05-24 20:32:00,
2013-05-24 16:42:00,53.0,49.0,29.93,ESE,107,1.0,4.0,85,0.00,,,0.37,,2013-05-24 20:42:00,
2013-05-24 16:52:00,53.0,48.0,29.93,ESE,113,0.0,4.0,83,0.00,,,0.37,,2013-05-24 20:52:00,
2013-05-24 17:01:00,53.0,48.0,29.93,NE,56,1.0,4.0,84,0.00,,,0.37,,2013-05-24 21:01:00,
2013-05-24 17:11:00,53.0,48.0,29.93,NE,56,1.0,4.0,84,0.00,,,0.37,,2013-05-24 21:11:00,
2013-05-24 17:21:00,52.0,48.0,29.95,SE,134,0.0,4.0,86,0.00,,,0.34,,2013-05-24 21:21:00,
2013-05-24 17:33:00,52.0,48.0,29.94,East,98,0.0,3.0,85,0.00,,,0.34,,2013-05-24 21:33:00,
2013-05-24 17:42:00,52.0,48.0,29.94,East,98,0.0,3.0,85,0.00,,,0.34,,2013-05-24 21:42:00,
2013-05-24 17:53:00,52.0,47.0,29.95,East,90,1.0,4.0,84,0.00,,,0.34,,2013-05-24 21:53:00,
2013-05-24 18:03:00,51.0,46.0,29.95,SE,138,1.0,5.0,84,0.00,,,0.34,,2013-05-24 22:03:00,
2013-05-24 18:12:00,51.0,46.0,29.95,SE,138,1.0,5.0,84,0.00,,,0.34,,2013-05-24 22:12:00,
2013-05-24 18:22:00,51.0,46.0,29.95,NE,55,0.0,5.0,83,0.00,,,0.34,,2013-05-24 22:22:00,
2013-05-24 18:33:00,50.0,45.0,29.95,NNE,23,1.0,4.0,83,0.00,,,0.34,,2013-05-24 22:33:00,
2013-05-24 18:42:00,50.0,45.0,29.95,NNE,23,1.0,4.0,83,0.00,,,0.34,,2013-05-24 22:42:00,
2013-05-24 18:52:00,49.0,45.0,29.96,SW,236,1.0,3.0,85,0.00,,,0.34,,2013-05-24 22:52:00,
2013-05-24 19:02:00,49.0,46.0,29.96,ESE,108,1.0,3.0,88,0.00,,,0.34,,2013-05-24 23:02:00,
2013-05-24 19:11:00,49.0,46.0,29.96,ESE,108,1.0,3.0,88,0.00,,,0.34,,2013-05-24 23:11:00,
2013-05-24 19:22:00,48.0,45.0,29.97,SSW,207,0.0,4.0,88,0.00,,,0.27,,2013-05-24 23:22:00,
2013-05-24 19:32:00,47.0,44.0,29.97,SW,225,0.0,4.0,90,0.00,,,0.27,,2013-05-24 23:32:00,
2013-05-24 19:42:00,47.0,44.0,29.97,SW,225,0.0,4.0,90,0.00,,,0.27,,2013-05-24 23:42:00,
2013-05-24 19:52:00,47.0,44.0,29.98,SSW,210,1.0,3.0,89,0.00,,,0.27,,2013-05-24 23:52:00,
2013-05-24 20:01:00,46.0,43.0,29.98,SW,226,1.0,4.0,90,0.00,,,0.27,,2013-05-25 00:01:00,
2013-05-24 20:12:00,46.0,43.0,29.98,SW,226,1.0,4.0,90,0.00,,,0.27,,2013-05-25 00:12:00,
2013-05-24 20:22:00,46.0,43.0,29.98,SW,226,1.0,4.0,90,0.00,,,0.27,,2013-05-25 00:22:00,
2013-05-24 20:32:00,46.0,44.0,29.99,West,276,0.0,5.0,91,0.01,,,0.10,,2013-05-25 00:32:00,
2013-05-24 20:42:00,46.0,44.0,29.99,West,276,0.0,5.0,91,0.01,,,0.10,,2013-05-25 00:42:00,
2013-05-24 20:52:00,45.0,43.0,30.00,SW,235,0.0,2.0,91,0.01,,,0.10,,2013-05-25 00:52:00,
2013-05-24 21:01:00,45.0,43.0,30.00,WSW,243,0.0,2.0,91,0.01,,,0.10,,2013-05-25 01:01:00,
2013-05-24 21:11:00,45.0,43.0,30.00,WSW,243,0.0,2.0,91,0.01,,,0.10,,2013-05-25 01:11:00,
2013-05-24 21:22:00,45.0,43.0,29.99,SSW,203,0.0,1.0,91,0.01,,,0.07,,2013-05-25 01:22:00,
2013-05-24 21:32:00,45.0,43.0,30.00,ESE,113,0.0,3.0,91,0.00,,,0.07,,2013-05-25 01:32:00,
2013-05-24 21:42:00,45.0,43.0,30.00,ESE,113,0.0,3.0,91,0.00,,,0.07,,2013-05-25 01:42:00,
2013-05-24 21:52:00,45.0,43.0,30.00,SSE,152,0.0,2.0,91,0.00,,,0.07,,2013-05-25 01:52:00,
2013-05-24 22:02:00,45.0,43.0,30.00,SSE,152,0.0,2.0,91,0.00,,,0.07,,2013-05-25 02:02:00,
2013-05-24 22:12:00,45.0,43.0,30.00,SSE,152,0.0,2.0,91,0.00,,,0.07,,2013-05-25 02:12:00,
2013-05-24 22:21:00,45.0,43.0,30.01,ENE,76,1.0,4.0,91,0.00,,,0.06,,2013-05-25 02:21:00,
2013-05-24 22:32:00,45.0,43.0,30.01,WNW,291,1.0,4.0,91,0.00,,,0.06,,2013-05-25 02:32:00,
2013-05-24 22:42:00,45.0,43.0,30.01,WNW,291,1.0,4.0,91,0.00,,,0.06,,2013-05-25 02:42:00,
2013-05-24 22:52:00,45.0,43.0,30.01,WSW,253,0.0,3.0,93,0.01,,,0.07,,2013-05-25 02:52:00,
2013-05-24 23:02:00,44.0,42.0,30.01,SW,221,0.0,2.0,94,0.01,,,0.07,,2013-05-25 03:02:00,
2013-05-24 23:11:00,44.0,42.0,30.01,SW,221,0.0,2.0,94,0.01,,,0.07,,2013-05-25 03:11:00,
2013-05-24 23:22:00,44.0,42.0,30.01,SW,232,0.0,3.0,94,0.01,,,0.05,,2013-05-25 03:22:00,
2013-05-24 23:32:00,44.0,43.0,30.01,SSE,167,0.0,2.0,95,0.02,,,0.06,,2013-05-25 03:32:00,
2013-05-24 23:43:00,44.0,43.0,30.01,SSE,167,0.0,2.0,95,0.02,,,0.06,,2013-05-25 03:43:00,
2013-05-24 23:53:00,44.0,43.0,30.01,SSW,205,0.0,3.0,95,0.02,,,0.07,,2013-05-25 03:53:00,